Flag for U.S.A. Weather past 2 weeks in Evansville, Indiana, U.S.A.

Now
86 °F

Sunny.


Feels Like: 86 °F
Forecast: 67 / 86 °F
Wind: 7 mph from Northwest

Location: Evansville Regional Airport

Current Time: Jul 30, 2015 at 6:42:06 PM

Latest Report: Jul 30, 2015 at 5:54 PM


Visibility: 10 mi

Pressure: 30.05 "Hg

Humidity: 43%

Dew point: 61 °F

Location of EvansvilleLocation

Historic Weather in Evansville — Graph

°F

Evansville temperature yesterday

Maximum temperature yesterday: 94 °F (at 2:54 PM)
Minimum temperature yesterday: 75 °F (at 1:54 AM)
Average temperature yesterday: 81 °F

Past Weeks' High & Low Weather Summary

 TemperatureHumidityPressure
High94 °F (Jul 18, 1:54 PM)97% (Jul 28, 4:54 AM)30.12 "Hg (Jul 28, 4:54 AM)
Low65 °F (Jul 22, 5:54 AM)34% (Jul 30, 2:54 PM)29.77 "Hg (Jul 21, 2:54 AM)
Average80 °F72%29.94 "Hg
* Reported Jul 15 5:54 PM — Jul 30 5:54 PM, Evansville, Weather by CustomWeather, © 2015

Note: Actual official high and low records may vary slightly from our data, if they occured in-between our weather recording intervals... More about our weather records

Advertising

Evansville weather history for previous 24 hours

 ConditionsComfort  
Time TempWeatherWind HumidityBarometerVisibility
5:54 PM
Thu, Jul 30
86 °FSunny.7 mph43%30.05 "Hg10 mi
4:54 PM87 °FSunny.8 mph40%30.07 "Hg10 mi
3:54 PM88 °FSunny.8 mph36%30.09 "Hg10 mi
2:54 PM88 °FSunny.10 mph34%30.10 "Hg10 mi
1:54 PM88 °FSunny.9 mph35%30.11 "Hg10 mi
12:54 PM87 °FSunny.7 mph39%30.12 "Hg10 mi
11:54 AM85 °FSunny.7 mph45%30.12 "Hg10 mi
10:54 AM84 °FSunny.10 mph46%30.12 "Hg10 mi
9:54 AM80 °FSunny.9 mph54%30.12 "Hg10 mi
8:54 AM78 °FSunny.8 mph58%30.12 "Hg10 mi
7:54 AM74 °FSunny.8 mph64%30.10 "Hg10 mi
6:54 AM71 °FSunny.5 mph68%30.10 "Hg10 mi
5:54 AM69 °FSunny.No wind73%30.08 "Hg10 mi
4:54 AM71 °FClear.3 mph68%30.07 "Hg10 mi
3:54 AM72 °FClear.No wind73%30.06 "Hg10 mi
2:54 AM72 °FClear.3 mph76%30.06 "Hg10 mi
1:54 AM74 °FClear.7 mph71%30.04 "Hg10 mi
12:54 AM76 °FClear.6 mph72%30.04 "Hg10 mi
11:54 PM
Wed, Jul 29
79 °FClear.8 mph60%30.04 "Hg10 mi
10:54 PM80 °FClear.8 mph69%30.03 "Hg10 mi
9:54 PM82 °FClear.7 mph77%30.03 "Hg10 mi
8:54 PM82 °FClear.3 mph85%30.00 "Hg7 mi
7:54 PM83 °FSunny.6 mph79%29.98 "Hg7 mi
6:54 PM85 °FSunny.5 mph72%29.96 "Hg9 mi
Weather by CustomWeather, © 2015

See weather overviewHow to use our weather pages